Theta_e
308 308 307 305 304 304 301 300 298 298 297 297 297 296 295 295 295 295 296 297 297 298 298 298 297 297 298 298 298 297 296 295 293 293 292 290 288 287 287 285 284 284
306 306 304 303 302 302 300 301 299 299 298 298 298 297 297 295 294 294 295 295 295 295 295 296 296 296 295 295 295 294 291 290 290 291 289 288 287 286 285 284 283 283
305 305 303 302 301 300 300 300 300 300 300 299 298 298 296 295 294 294 294 294 294 294 294 294 294 294 294 293 292 290 288 288 288 287 287 287 286 285 284 283 283 282
304 304 303 302 301 300 299 299 299 299 300 298 298 297 295 294 294 294 294 293 293 292 292 293 293 292 292 290 288 287 287 287 287 286 286 285 285 284 283 283 282 282
302 302 302 302 301 301 299 298 298 298 298 298 297 296 294 293 292 291 291 291 291 290 290 290 290 290 290 289 287 286 285 285 285 285 285 284 283 284 283 282 282 281
300 301 301 301 300 300 299 298 297 297 297 295 295 294 293 292 291 290 290 290 290 290 289 289 289 289 289 287 286 285 285 284 284 284 283 283 282 283 283 282 281 280
297 299 299 299 299 299 297 297 297 296 295 294 291 291 291 291 290 290 289 289 289 289 289 288 288 288 287 286 285 284 284 284 283 283 282 282 282 281 281 281 281 281
297 297 297 295 295 296 295 294 294 294 294 292 290 289 290 290 290 289 289 288 288 288 288 288 288 288 286 285 284 283 283 284 283 282 281 281 281 280 280 280 280 279
295 295 294 293 293 293 293 293 293 293 292 291 290 289 288 289 289 288 288 288 287 287 287 287 287 287 286 284 283 283 283 282 282 281 281 280 280 280 279 279 278 278
294 293 293 293 292 292 292 292 292 291 290 291 290 289 288 288 288 288 288 287 287 286 286 286 286 286 285 283 283 282 282 282 281 280 280 280 279 279 279 279 278 277
293 292 293 293 293 293 292 291 291 290 289 290 289 288 288 287 287 287 287 287 286 286 285 285 285 285 284 282 282 282 282 281 280 280 279 279 279 279 280 278 278 278
293 292 292 293 293 293 292 291 290 289 289 289 289 288 287 287 287 287 287 287 286 286 285 285 284 284 283 282 281 281 280 280 280 280 279 279 278 278 278 278 278 278
293 293 293 292 292 292 291 290 289 289 288 288 288 288 287 286 286 286 286 286 286 285 285 284 283 283 283 281 280 280 280 280 280 279 279 278 278 278 277 278 278 278
293 293 292 292 292 291 290 289 288 288 288 288 287 287 287 286 286 286 286 286 285 285 285 284 282 282 282 281 280 280 280 280 280 279 278 278 277 277 278 278 278 279
292 292 291 291 291 290 289 288 288 287 286 287 286 287 287 286 286 286 285 285 284 284 284 283 282 282 282 281 280 280 280 280 280 279 278 277 277 278 278 278 279 279
291 291 290 290 290 290 289 288 287 286 285 286 286 286 286 286 285 285 285 284 284 283 283 283 282 283 283 285 284 281 280 280 280 279 278 278 278 277 277 278 279 280
291 291 290 289 289 289 288 287 286 285 285 285 286 285 285 285 285 284 284 284 283 283 282 282 282 283 285 288 289 287 281 280 279 279 279 278 278 277 277 278 279 281
291 290 289 289 288 288 288 286 285 284 284 285 285 284 285 285 284 284 284 283 283 282 282 282 282 284 287 288 288 287 284 281 280 279 279 278 278 278 278 278 279 280
290 290 289 288 287 287 286 286 285 284 284 283 283 284 285 284 284 283 283 283 283 282 282 282 282 286 288 288 289 288 287 283 280 279 279 279 278 278 278 278 279 280
290 289 288 288 287 286 285 285 284 284 284 284 284 284 284 284 284 283 283 283 283 282 282 282 281 285 288 288 287 288 287 284 280 280 280 279 278 278 278 279 280 280
289 289 288 287 286 285 284 284 284 284 283 284 284 284 284 284 283 283 283 283 283 283 282 281 281 286 288 288 290 289 287 284 280 280 279 279 279 279 279 279 280 281
289 288 287 287 286 285 284 284 283 283 283 283 284 284 284 284 284 284 283 283 283 283 282 281 281 287 287 288 289 288 287 281 280 280 279 279 279 279 279 280 281 282
289 288 287 286 285 284 284 284 283 282 282 283 283 284 284 283 283 283 283 282 282 282 281 281 280 285 287 288 289 288 285 280 280 280 279 279 278 279 279 280 281 282
288 287 286 285 285 284 284 283 283 282 282 283 283 283 283 283 283 283 283 282 282 282 282 281 280 284 287 287 288 288 284 280 280 280 279 279 278 279 279 280 281 282
287 287 286 285 285 284 283 283 282 282 282 282 282 283 283 283 282 282 282 283 282 282 282 282 281 282 286 287 287 287 284 281 280 280 279 278 278 278 279 279 279 281
286 286 286 285 285 283 283 283 283 282 282 282 282 283 283 283 282 282 281 281 282 281 281 282 281 281 285 287 287 288 286 282 280 279 278 278 278 278 278 278 279 279
Wind_Speed
9 8 8 8 7 6 8 8 7 8 8 8 9 9 10 9 9 10 9 8 8 7 7 6 6 6 6 7 7 8 8 9 8 7 8 9 8 9 9 8 7 8
10 9 6 6 6 5 7 8 8 9 9 9 8 8 8 8 8 9 10 10 8 6 6 6 6 7 8 8 8 8 7 8 8 6 9 9 8 8 8 8 8 7
9 8 7 7 8 7 8 8 8 8 7 8 8 7 6 7 8 8 8 8 9 8 7 7 7 7 8 8 8 9 9 9 9 7 8 9 8 8 7 8 8 8
10 9 8 7 7 8 7 7 7 7 6 6 7 6 6 5 8 8 7 7 8 8 8 8 8 7 8 8 8 8 8 9 8 9 8 7 7 8 8 8 8 7
10 10 9 9 8 8 8 8 9 8 8 8 6 7 8 8 8 8 8 8 8 8 8 8 7 8 8 8 9 9 8 8 7 8 9 8 7 9 7 9 9 9
9 9 9 9 9 9 9 10 9 9 8 7 9 8 8 9 9 9 9 9 8 8 8 8 8 8 9 8 8 9 9 9 8 9 10 10 8 6 7 8 10 9
10 10 10 8 9 9 9 9 8 8 8 8 7 8 9 10 10 9 10 10 10 10 10 10 10 10 8 8 9 9 8 9 9 10 11 9 9 8 6 9 9 9
11 9 9 7 8 8 9 8 8 8 8 7 9 8 9 10 10 9 9 10 10 10 10 10 10 11 10 9 10 10 9 7 9 10 11 10 10 10 8 7 8 9
9 9 9 10 10 8 9 9 8 8 8 9 9 8 7 8 9 10 10 10 10 10 10 10 11 11 10 10 11 12 12 10 10 11 12 12 11 11 10 9 9 9
9 8 10 10 11 10 10 10 9 8 8 9 9 8 9 7 8 9 9 9 10 10 10 10 11 11 10 10 12 13 12 12 11 11 11 12 12 12 11 10 11 10
10 9 11 12 12 11 12 11 10 9 8 10 9 9 8 8 8 8 9 10 10 11 11 11 11 11 11 10 9 10 13 13 12 11 11 11 12 12 11 11 11 11
11 11 12 13 12 11 12 11 10 10 10 9 9 10 9 9 11 10 11 12 11 11 12 12 11 12 12 12 12 11 11 11 11 12 12 11 11 10 11 10 10 11
12 13 12 11 11 10 9 10 11 10 10 10 9 10 11 10 10 11 10 10 11 11 12 12 11 11 11 11 11 11 12 12 11 10 10 9 9 10 9 9 10 11
11 10 11 11 9 8 9 10 9 9 10 9 9 10 11 11 11 11 10 10 11 11 11 10 10 10 10 10 11 12 12 11 11 11 11 9 9 9 9 9 9 10
8 8 8 9 9 10 10 10 10 9 8 9 10 10 9 10 10 10 10 10 9 10 9 9 10 10 10 11 11 10 10 11 11 11 11 11 10 9 8 9 9 9
8 8 9 9 10 12 11 11 11 10 10 10 11 10 10 10 10 9 10 11 11 10 10 9 9 8 11 18 15 14 12 10 10 11 12 12 12 11 9 8 8 8
9 10 9 11 11 10 10 10 11 11 11 11 10 10 10 10 10 10 11 10 11 11 11 10 10 9 16 18 13 13 12 11 11 11 11 12 12 12 12 10 8 8
11 9 10 11 10 12 11 10 9 10 11 11 10 10 9 8 10 11 10 10 9 10 11 10 10 13 19 18 15 14 13 14 11 10 9 10 11 11 11 10 10 9
10 10 10 10 11 10 9 10 11 11 11 12 13 10 9 10 12 11 11 10 10 11 10 9 7 12 17 20 17 18 17 11 9 11 12 10 11 11 12 11 10 9
9 10 11 11 9 9 9 11 11 13 11 10 9 9 11 10 9 10 9 9 10 10 10 9 9 13 21 22 24 19 18 15 10 11 10 11 12 11 11 12 12 11
11 11 11 9 9 9 10 11 11 10 10 9 10 11 11 11 11 10 10 9 9 9 9 9 9 14 18 19 13 15 18 13 9 8 9 9 10 11 12 13 12 11
11 11 10 9 10 10 11 11 10 11 11 8 8 8 7 7 8 8 9 9 8 9 9 10 8 15 17 20 15 18 17 9 9 10 9 9 9 10 10 9 10 10
11 11 10 9 10 11 11 11 11 10 8 8 9 8 9 10 10 10 9 10 10 10 10 9 7 14 17 16 15 19 14 8 9 9 9 9 9 10 9 10 9 9
9 9 9 9 10 12 12 10 9 7 9 9 11 10 10 10 9 9 8 9 10 10 10 10 8 12 17 16 17 20 11 10 9 9 9 9 7 7 6 7 8 12
9 9 9 10 11 11 10 10 11 10 9 8 9 9 9 8 7 7 7 7 7 8 9 8 6 9 15 17 17 17 12 7 7 7 8 7 7 7 6 6 6 8
9 10 10 11 11 9 9 10 9 8 10 9 8 7 7 7 7 7 8 7 7 7 8 8 8 8 11 16 17 17 15 9 6 8 9 9 7 8 8 5 6 5
Wind_Direction
210 203 200 189 190 179 170 175 180 179 186 185 188 190 193 193 175 181 185 186 190 185 170 161 148 144 147 149 152 149 151 148 141 140 133 134 136 137 139 139 132 135
210 206 191 181 178 171 171 179 182 185 188 190 192 190 190 176 179 176 180 181 180 175 160 155 155 150 151 152 153 148 139 142 140 140 133 136 143 133 139 141 134 131
205 207 193 187 180 175 173 180 183 188 186 190 186 185 172 168 164 172 175 175 169 159 156 156 154 160 158 153 151 148 149 145 144 143 136 143 143 139 145 138 134 140
204 203 198 190 179 177 173 174 180 183 182 180 188 177 162 163 161 162 166 171 164 158 157 158 161 160 158 152 146 148 151 150 149 142 135 134 143 139 144 135 130 125
198 198 193 189 186 177 176 182 183 183 183 183 169 162 159 167 167 166 168 172 164 159 158 160 158 160 158 154 150 146 147 143 149 142 141 145 151 143 147 137 137 132
198 198 194 189 186 182 185 188 185 179 176 171 176 166 170 166 167 169 169 169 166 161 161 159 161 162 164 158 152 151 148 147 155 145 144 146 148 145 144 140 136 137
191 194 198 190 187 189 187 188 181 179 178 175 156 178 165 168 170 171 172 174 169 168 168 167 165 166 167 159 154 150 151 153 153 151 146 148 144 143 143 139 138 139
190 190 189 186 192 192 190 186 182 182 176 163 177 177 173 171 172 171 175 174 171 172 171 170 170 170 167 160 157 149 152 156 155 153 148 149 149 148 148 141 138 136
193 191 182 185 188 192 193 186 184 181 175 177 179 173 175 172 171 171 176 175 173 172 172 173 173 172 171 163 161 156 157 163 163 158 154 153 154 152 147 140 136 138
196 195 189 188 191 191 193 188 181 182 178 183 180 171 177 176 172 175 175 176 176 174 174 174 174 174 172 171 163 160 160 162 164 163 159 157 153 150 148 149 147 142
192 190 198 198 195 192 194 186 183 180 180 183 177 179 178 172 181 178 179 179 180 178 175 177 179 174 171 169 165 163 163 163 164 162 160 157 155 154 154 151 152 150
193 192 199 202 200 195 189 185 181 181 181 185 181 179 178 184 182 184 184 186 184 183 180 179 178 177 173 169 167 164 163 164 163 161 159 155 153 152 153 153 149 148
197 199 196 200 201 197 185 183 183 181 180 185 182 182 183 186 189 186 190 186 185 182 183 179 177 177 172 169 166 164 162 163 161 157 152 149 150 150 148 149 149 148
205 198 196 196 195 191 186 185 180 180 183 180 177 187 190 190 189 189 187 187 186 186 184 177 174 175 172 169 169 166 163 163 160 153 146 140 139 145 150 148 143 145
199 198 195 191 188 190 188 183 181 177 176 180 185 190 190 192 191 189 184 188 188 184 178 175 178 180 176 169 166 167 161 158 157 151 143 140 141 144 145 144 145 148
199 197 192 186 189 193 191 184 178 174 176 184 190 191 188 186 189 190 189 190 185 181 179 177 182 184 184 176 168 165 167 159 150 149 149 150 149 148 148 147 143 141
198 201 187 192 195 191 190 183 178 174 178 184 188 189 187 186 185 189 194 190 185 181 180 184 186 185 181 180 172 161 153 152 153 157 158 154 153 152 153 153 149 148
203 195 195 198 187 193 190 184 175 175 179 183 184 187 188 180 186 193 193 189 186 185 185 189 192 184 179 176 164 156 157 162 161 153 151 155 158 157 154 151 156 157
197 197 199 196 196 187 181 180 182 181 181 183 188 184 176 184 189 186 192 191 186 185 186 184 187 174 176 179 167 168 164 142 152 156 160 165 162 159 157 158 158 158
195 195 200 197 186 179 177 182 184 191 188 182 174 175 183 184 182 187 187 189 187 184 182 181 185 185 179 183 181 166 152 158 161 163 163 162 162 162 160 163 165 164
197 197 198 192 183 177 177 183 188 188 184 181 177 180 182 183 182 184 192 190 188 185 182 181 184 187 183 175 161 160 160 148 157 152 157 161 164 165 167 168 168 167
196 196 195 187 179 176 179 183 185 184 181 175 174 179 180 176 184 185 186 186 183 182 185 188 179 177 179 177 165 166 159 151 152 157 162 165 165 169 168 167 164 166
194 194 193 182 175 177 183 183 180 178 173 167 171 176 175 180 183 185 183 180 183 186 186 182 176 180 174 167 160 164 159 159 159 160 166 166 171 171 169 163 167 168
192 189 184 176 174 184 184 181 173 169 173 170 173 173 179 184 182 178 180 181 180 184 185 181 177 177 170 166 171 172 156 162 169 165 166 166 162 162 154 161 167 165
181 180 177 176 182 184 175 171 175 175 169 166 175 177 182 176 173 171 171 175 181 183 181 175 161 177 178 174 170 172 159 167 163 166 162 165 158 153 149 152 161 169
177 177 178 178 177 167 172 176 167 160 168 170 171 171 168 165 167 168 170 174 167 169 176 177 164 173 182 172 170 168 162 160 167 165 171 166 164 153 146 159 169 172